Погода в Инсаре

Россия / Республика Мордовия     53°51′59″N   44°22′20″E
темп.,
°C
ветер,
м/с
пор.,
м/с
влажн.,
%
обл.,
%
осадки,
мм/ч
давл.,
гПа
погр.,
м
17 мая, пн
пн1700:00+17юв228396 0.0 101413
03:00+16вюв228192 0.0 101511
06:00+17юв237649 0.0 101577
09:00+23ю465925 0.0 1016340
12:00+27ю584593 0.0 10161199
15:00+28ююв4744100 0.0 10151506
18:00+24юв2258100 0.0 101525
21:00+19в5106057 0.0 1015135
18 мая, вт
вт1800:00+16вюв4107597 0.0 1015145
03:00+15вюв487052 0.0 1015102
06:00+16вюв4117054 0.0 1015179
09:00+22вюв6136016 0.0 1014507
12:00+26вюв610505 0.0 1014966
15:00+27вюв610503 0.0 1013893
18:00+23вюв512634 0.0 1013258
21:00+20вюв616594 0.0 1013286
19 мая, ср
ср1900:00+19вюв6155366 0.0 1013284
03:00+16вюв5135811 0.0 1012208
06:00+17вюв6156453 0.0 1012271
09:00+22вюв7156228 0.0 1012499
12:00+26вюв711520 0.0 10121386
15:00+27вюв711491 0.0 10111316
18:00+23вюв613610 0.0 1011349
21:00+20вюв818624 0.0 1011677
20 мая, чт
чт2000:00+17юв6146875 0.0 1011338
03:00+16юв6147485 0.0 1011561
06:00+16вюв71480100 0.0 1010708
09:00+19юв8117395 0.0 10101119
12:00+20ююв7973100 0.9 10101289
15:00+14ююв51093100 6.3 1011556
18:00+14юв699484 4.4 1011402
21:00+13юв51096100 4.4 1011261
21 мая, пт
пт2100:00+12ю3896100 0.0 1011199
03:00+11ююз38960 0.0 1012174
06:00+12ююз48923 0.0 1013279
09:00+16ююз467321 0.0 1014686
12:00+16юз71079100 0.9 1014932
15:00+18ююз6107259 1.4 10141194
18:00+17ююз6118296 2.1 1014676
21:00+14ююз3990100 2.8 1014156